| time (UTC) | temp F | wind direction | speed knots | gust knots | rain 1hr in | rain 24hr in | rain mn in | humidity % | barometer mb |
| 20260507151552 | 58 | 171 | 0.0 | 0.9 | 0.00 | 0.00 | 0.00 | 56 | 1020.8 |
| 20260507150054 | 59 | 0 | 0.0 | 1.7 | 0.00 | 0.00 | 0.00 | 55 | 1020.9 |
| 20260507144608 | 59 | 196 | 0.0 | 1.7 | 0.00 | 0.00 | 0.00 | 56 | 1020.9 |
| 20260507143101 | 59 | 254 | 0.0 | 2.6 | 0.00 | 0.00 | 0.00 | 56 | 1021.0 |
| 20260507141558 | 59 | 0 | 0.0 | 2.6 | 0.00 | 0.00 | 0.00 | 55 | 1021.1 |
| 20260507140049 | 60 | 146 | 0.9 | 1.7 | 0.00 | 0.00 | 0.00 | 55 | 1021.2 |
| 20260507134554 | 61 | 134 | 0.0 | 3.5 | 0.00 | 0.00 | 0.00 | 50 | 1021.2 |
| 20260507133125 | 61 | 196 | 0.9 | 3.5 | 0.00 | 0.00 | 0.00 | 50 | 1021.1 |
| 20260507131552 | 63 | 51 | 0.9 | 4.3 | 0.00 | 0.00 | 0.00 | 49 | 1021.1 |
| 20260507124556 | 62 | 108 | 0.0 | 4.3 | 0.00 | 0.00 | 0.00 | 46 | 1021.3 |
| 20260507123053 | 62 | 170 | 0.9 | 4.3 | 0.00 | 0.00 | 0.00 | 50 | 1021.3 |
| 20260507121553 | 62 | 306 | 0.9 | 3.5 | 0.00 | 0.00 | 0.00 | 48 | 1021.3 |
| 20260507120052 | 62 | 320 | 0.9 | 3.5 | 0.00 | 0.00 | 0.00 | 51 | 1021.5 |
| 20260507114600 | 63 | 218 | 0.9 | 4.3 | 0.00 | 0.00 | 0.00 | 50 | 1021.6 |
| 20260507113051 | 62 | 0 | 0.0 | 5.2 | 0.00 | 0.00 | 0.00 | 51 | 1021.7 |
| 20260507111555 | 61 | 19 | 0.0 | 4.3 | 0.00 | 0.00 | 0.00 | 57 | 1021.7 |
| 20260507110054 | 60 | 228 | 0.9 | 3.5 | 0.00 | 0.00 | 0.00 | 61 | 1021.9 |
| 20260507104552 | 58 | 0 | 0.0 | 3.5 | 0.00 | 0.00 | 0.00 | 65 | 1022.0 |
| 20260507103056 | 56 | 0 | 0.9 | 3.5 | 0.00 | 0.00 | 0.00 | 71 | 1021.9 |
| 20260507101550 | 55 | 51 | 0.0 | 3.5 | 0.00 | 0.00 | 0.00 | 70 | 1022.1 |
| 20260507100057 | 54 | 0 | 0.0 | 2.6 | 0.00 | 0.00 | 0.00 | 73 | 1022.1 |
| 20260507094559 | 53 | 171 | 0.0 | 1.7 | 0.00 | 0.00 | 0.00 | 75 | 1022.3 |
| 20260507093052 | 53 | 0 | 0.0 | 1.7 | 0.00 | 0.00 | 0.00 | 75 | 1022.4 |
| 20260507091554 | 52 | 13 | 0.0 | 2.6 | 0.00 | 0.00 | 0.00 | 75 | 1022.2 |
| 20260507090054 | 51 | 26 | 0.0 | 0.9 | 0.00 | 0.00 | 0.00 | 76 | 1022.3 |
| 20260507084557 | 50 | 0 | 0.0 | 1.7 | 0.00 | 0.00 | 0.00 | 79 | 1022.3 |
| 20260507083053 | 49 | 0 | 0.0 | 1.7 | 0.00 | 0.00 | 0.00 | 80 | 1022.3 |
| 20260507081551 | 48 | 0 | 0.0 | 1.7 | 0.00 | 0.00 | 0.00 | 81 | 1022.2 |
| 20260507080056 | 48 | 0 | 0.0 | 1.7 | 0.00 | 0.00 | 0.00 | 82 | 1022.1 |
| 20260507074557 | 48 | 0 | 0.0 | 0.9 | 0.00 | 0.00 | 0.00 | 83 | 1022.0 |
| 20260507073102 | 47 | 0 | 0.0 | 0.9 | 0.00 | 0.00 | 0.00 | 84 | 1022.0 |
| 20260507071553 | 47 | 0 | 0.0 | 1.7 | 0.00 | 0.00 | 0.00 | 84 | 1022.0 |
| 20260507070057 | 46 | 0 | 0.0 | 0.9 | 0.00 | 0.00 | 0.00 | 85 | 1022.0 |
| 20260507064557 | 46 | 0 | 0.0 | 0.0 | 0.00 | 0.00 | 0.00 | 86 | 1021.9 |
| 20260507063100 | 45 | 0 | 0.0 | 0.9 | 0.00 | 0.00 | 0.00 | 86 | 1021.8 |
| 20260507061549 | 45 | 0 | 0.0 | 0.9 | 0.00 | 0.00 | 0.00 | 87 | 1021.9 |
| 20260507060056 | 45 | 0 | 0.0 | 0.0 | 0.00 | 0.00 | 0.00 | 87 | 1021.7 |
| 20260507054551 | 44 | 0 | 0.0 | 0.9 | 0.00 | 0.00 | 0.00 | 87 | 1021.8 |
| 20260507053115 | 44 | 0 | 0.0 | 0.9 | 0.00 | 0.00 | 0.00 | 88 | 1021.6 |
| 20260507051555 | 44 | 0 | 0.0 | 0.0 | 0.00 | 0.00 | 0.00 | 88 | 1021.5 |
| 20260507050051 | 44 | 0 | 0.0 | 1.7 | 0.00 | 0.00 | 0.00 | 88 | 1021.5 |
| 20260507044603 | 43 | 248 | 0.0 | 0.9 | 0.00 | 0.00 | 0.00 | 89 | 1021.3 |
| 20260507043050 | 43 | 127 | 0.0 | 1.7 | 0.00 | 0.00 | 0.00 | 88 | 1021.3 |
| 20260507041552 | 43 | 0 | 0.0 | 0.9 | 0.00 | 0.00 | 0.00 | 88 | 1021.2 |
| 20260507040050 | 43 | 0 | 0.0 | 0.0 | 0.00 | 0.00 | 0.00 | 88 | 1021.3 |
| 20260507034554 | 43 | 0 | 0.0 | 0.9 | 0.00 | 0.00 | 0.00 | 88 | 1021.3 |
| 20260507033101 | 43 | 0 | 0.0 | 0.0 | 0.00 | 0.00 | 0.00 | 88 | 1021.3 |
| 20260507031600 | 43 | 0 | 0.0 | 0.9 | 0.00 | 0.00 | 0.00 | 88 | 1021.4 |
| 20260507030108 | 43 | 0 | 0.0 | 1.7 | 0.00 | 0.00 | 0.00 | 88 | 1021.4 |
| 20260507024606 | 43 | 52 | 0.0 | 1.7 | 0.00 | 0.00 | 0.00 | 88 | 1021.5 |
| 20260507023051 | 43 | 0 | 0.0 | 1.7 | 0.00 | 0.00 | 0.00 | 88 | 1021.5 |
| 20260507021558 | 43 | 24 | 0.0 | 1.7 | 0.00 | 0.00 | 0.00 | 88 | 1021.5 |
| 20260507020101 | 43 | 0 | 0.0 | 0.9 | 0.00 | 0.00 | 0.00 | 88 | 1021.5 |
| 20260507014604 | 43 | 0 | 0.0 | 0.9 | 0.00 | 0.00 | 0.00 | 87 | 1021.5 |
| 20260507013100 | 43 | 0 | 0.0 | 1.7 | 0.00 | 0.00 | 0.00 | 87 | 1021.5 |
| 20260507011556 | 43 | 0 | 0.0 | 0.0 | 0.00 | 0.00 | 0.00 | 87 | 1021.5 |
| 20260507010049 | 44 | 0 | 0.0 | 1.7 | 0.00 | 0.00 | 0.00 | 86 | 1021.6 |
| 20260507004554 | 44 | 0 | 0.0 | 0.9 | 0.00 | 0.00 | 0.00 | 86 | 1021.5 |
| 20260507003051 | 44 | 0 | 0.0 | 2.6 | 0.00 | 0.00 | 0.00 | 86 | 1021.6 |
| 20260507001552 | 44 | 341 | 0.0 | 1.7 | 0.00 | 0.00 | 0.00 | 86 | 1021.7 |
| 20260507000053 | 44 | 0 | 0.0 | 1.7 | 0.00 | 0.00 | 0.00 | 85 | 1021.7 |
| 20260506234558 | 44 | 0 | 0.0 | 0.9 | 0.00 | 0.00 | 0.00 | 84 | 1021.6 |
| 20260506233052 | 45 | 0 | 0.0 | 1.7 | 0.00 | 0.00 | 0.00 | 84 | 1021.7 |
| 20260506231555 | 45 | 13 | 0.0 | 1.7 | 0.00 | 0.00 | 0.00 | 83 | 1021.7 |
| 20260506230052 | 45 | 28 | 0.0 | 2.6 | 0.00 | 0.00 | 0.00 | 83 | 1021.6 |
| 20260506224550 | 45 | 0 | 0.0 | 2.6 | 0.00 | 0.00 | 0.00 | 83 | 1021.5 |
| 20260506223050 | 45 | 0 | 0.0 | 1.7 | 0.00 | 0.00 | 0.00 | 82 | 1021.5 |
| 20260506221551 | 45 | 0 | 0.0 | 0.9 | 0.00 | 0.00 | 0.00 | 82 | 1021.4 |
| 20260506220054 | 46 | 0 | 0.0 | 1.7 | 0.00 | 0.00 | 0.00 | 82 | 1021.3 |
| 20260506214550 | 46 | 82 | 0.0 | 2.6 | 0.00 | 0.00 | 0.00 | 80 | 1021.3 |
| 20260506213053 | 46 | 0 | 0.0 | 0.9 | 0.00 | 0.00 | 0.00 | 79 | 1021.2 |
| 20260506211552 | 47 | 0 | 0.0 | 0.0 | 0.00 | 0.00 | 0.00 | 77 | 1021.1 |
| 20260506210054 | 47 | 30 | 0.0 | 1.7 | 0.00 | 0.00 | 0.00 | 76 | 1021.0 |
| 20260506204551 | 48 | 0 | 0.0 | 2.6 | 0.00 | 0.00 | 0.00 | 75 | 1021.0 |
| 20260506203051 | 48 | 0 | 0.0 | 0.0 | 0.00 | 0.00 | 0.00 | 73 | 1020.9 |
| 20260506201555 | 49 | 0 | 0.0 | 0.9 | 0.00 | 0.00 | 0.00 | 72 | 1020.7 |
| 20260506200054 | 50 | 0 | 0.0 | 1.7 | 0.00 | 0.00 | 0.00 | 70 | 1020.5 |
| 20260506194557 | 51 | 0 | 0.0 | 1.7 | 0.00 | 0.00 | 0.00 | 68 | 1020.5 |
| 20260506193048 | 52 | 0 | 0.0 | 7.0 | 0.00 | 0.00 | 0.00 | 64 | 1020.2 |
| 20260506191551 | 53 | 14 | 0.0 | 2.6 | 0.00 | 0.00 | 0.00 | 61 | 1020.2 |
| 20260506190052 | 53 | 14 | 0.0 | 2.6 | 0.00 | 0.00 | 0.00 | 59 | 1020.2 |
| 20260506184555 | 54 | 36 | 0.0 | 7.8 | 0.00 | 0.00 | 0.00 | 56 | 1020.3 |
| 20260506183051 | 55 | 22 | 0.0 | 2.6 | 0.00 | 0.00 | 0.00 | 53 | 1020.2 |
| 20260506181551 | 55 | 70 | 0.0 | 3.5 | 0.00 | 0.00 | 0.00 | 52 | 1020.0 |
| 20260506180051 | 55 | 0 | 0.0 | 7.0 | 0.00 | 0.00 | 0.00 | 52 | 1020.0 |
| 20260506174549 | 56 | 257 | 0.9 | 4.3 | 0.00 | 0.00 | 0.00 | 50 | 1019.9 |
| 20260506173122 | 56 | 32 | 0.0 | 8.7 | 0.00 | 0.00 | 0.00 | 50 | 1019.8 |
| 20260506171556 | 57 | 25 | 0.9 | 8.7 | 0.00 | 0.00 | 0.00 | 47 | 1019.8 |
| 20260506170047 | 58 | 0 | 0.0 | 4.3 | 0.00 | 0.00 | 0.00 | 47 | 1019.8 |
| 20260506164601 | 58 | 0 | 1.7 | 6.1 | 0.00 | 0.00 | 0.00 | 46 | 1019.8 |
| 20260506163106 | 60 | 0 | 0.0 | 2.6 | 0.00 | 0.00 | 0.00 | 46 | 1019.8 |
| 20260506161629 | 59 | 0 | 0.0 | 5.2 | 0.00 | 0.00 | 0.00 | 48 | 1019.8 |
| 20260506160056 | 58 | 0 | 1.7 | 10.4 | 0.00 | 0.00 | 0.00 | 47 | 1019.8 |
| 20260506154552 | 60 | 137 | 0.9 | 6.1 | 0.00 | 0.00 | 0.00 | 46 | 1019.7 |
| 20260506153057 | 60 | 213 | 0.0 | 7.8 | 0.00 | 0.00 | 0.00 | 44 | 1019.9 |